Wind_Speed
20 20 19 19 18 18 18 18 18 18 18 18 18 18 18 17 17 17 17 17 17 18 18 19 19 20 20 20 19 18 19 19 19 19 19 19 19 20
21 21 20 20 20 19 18 18 18 18 18 18 18 18 18 18 18 18 18 18 18 19 20 20 20 21 20 20 19 19 19 19 19 20 20 20 20 20
22 21 21 21 20 19 19 18 18 19 19 19 18 18 18 18 18 19 19 19 18 19 19 20 20 20 20 20 20 20 20 20 20 20 20 20 20 20
22 22 21 21 21 21 20 20 20 20 20 20 19 19 19 19 18 18 19 19 19 19 19 19 19 19 20 20 20 20 20 20 20 21 21 21 21 21
23 23 22 22 23 22 22 22 22 21 21 20 20 20 19 20 19 18 19 19 19 19 19 19 19 19 20 20 20 20 20 21 21 21 21 21 21 22
23 23 23 24 24 24 24 23 22 21 20 20 20 20 21 20 20 20 19 19 19 19 19 19 19 19 19 20 20 20 20 21 22 22 21 21 22 22
23 23 24 24 24 24 24 24 23 22 21 21 20 21 21 21 21 20 20 20 20 20 20 20 20 20 21 21 21 21 21 21 21 21 22 22 22 22
24 24 24 24 24 24 24 24 24 23 22 22 21 21 21 22 22 21 21 20 20 20 21 21 21 21 22 22 22 22 22 22 22 22 23 23 23 23
26 25 25 25 25 26 25 24 25 25 23 23 23 22 22 22 22 21 21 21 21 21 21 21 21 22 22 22 22 22 23 23 23 23 23 23 23 23
25 24 24 25 26 26 26 25 25 25 25 24 23 23 22 22 22 22 21 21 22 22 22 22 22 22 22 23 23 23 23 23 24 24 24 24 24 24
25 25 25 25 25 25 25 25 25 25 25 24 24 23 23 23 23 22 22 22 22 22 22 22 22 22 22 22 23 23 23 24 24 24 24 24 24 24
26 25 25 26 26 25 25 25 25 25 25 25 24 23 22 22 22 22 22 22 22 22 22 22 22 22 23 23 23 23 23 23 23 23 24 24 24 25
27 26 26 26 26 26 26 26 26 26 25 25 24 23 22 22 22 21 21 21 22 22 23 23 23 23 24 23 24 24 24 24 24 24 24 24 24 24
27 27 27 27 27 26 26 26 26 26 25 25 24 23 23 23 22 21 21 22 22 23 23 23 23 24 24 24 24 24 24 24 24 24 24 23 23 23
27 28 28 27 26 26 25 25 26 26 25 24 24 23 23 24 23 22 22 22 23 23 23 23 23 23 23 23 24 24 24 24 24 24 23 23 23 23
26 27 27 27 26 25 25 25 25 25 25 25 24 25 24 25 25 24 23 23 23 23 23 23 23 23 23 23 23 23 23 23 23 23 23 23 23 23
25 25 25 25 25 25 25 24 24 25 25 25 24 25 25 25 24 24 24 24 24 24 24 24 24 24 23 23 23 23 23 23 23 23 23 24 24 24
25 24 24 25 25 24 24 24 25 24 24 25 25 25 26 26 26 25 25 24 25 25 25 24 24 24 24 24 24 23 23 23 23 24 24 23 24 24
24 23 24 24 24 24 23 24 24 25 25 25 25 25 25 25 26 26 25 25 25 25 25 25 25 24 24 24 24 24 24 24 24 24 24 24 24 24
23 23 23 23 24 24 24 24 24 25 25 25 25 25 25 25 25 25 25 25 24 24 24 24 24 24 23 23 24 24 25 24 24 24 24 23 23 23
23 23 23 24 24 24 24 23 24 23 23 23 23 24 24 24 24 24 24 24 24 23 23 23 23 23 23 23 23 23 24 23 23 23 23 23 22 23
23 23 23 24 24 24 24 24 23 23 22 21 22 22 22 23 24 24 24 24 23 23 23 23 23 23 23 23 23 23 23 23 23 23 23 23 22 22
22 22 23 23 23 23 23 23 23 23 23 22 21 21 22 22 22 23 23 23 23 23 23 23 23 23 23 23 23 23 23 23 23 23 23 22 22 22
Wind_Direction
270 270 270 272 274 273 272 272 271 271 269 271 273 273 273 274 274 272 271 272 272 270 270 269 269 269 268 269 266 266 266 266 265 264 264 265 267 268
269 268 269 271 271 270 271 272 271 270 271 273 274 275 273 273 273 272 272 273 273 272 271 271 270 269 269 267 265 265 266 266 265 265 265 267 268 269
268 267 266 268 267 267 269 270 271 271 273 273 272 274 274 275 273 272 273 272 271 271 269 269 268 267 266 267 267 266 266 265 264 264 266 267 268 270
266 264 265 265 265 265 268 270 271 272 271 271 271 272 274 276 275 272 271 270 270 269 268 267 267 266 267 268 267 266 266 266 264 264 266 267 268 269
264 261 262 264 265 266 268 269 271 272 270 269 268 270 272 275 274 274 272 269 268 268 267 267 267 266 266 267 267 267 267 266 265 265 265 266 268 269
264 262 262 263 264 266 267 267 268 269 270 269 268 269 271 274 273 273 271 268 266 267 267 267 266 266 266 266 267 267 267 266 265 265 264 265 267 269
263 262 263 263 265 266 265 265 266 267 269 271 270 268 270 273 273 272 269 266 267 267 268 268 266 266 267 267 267 266 267 266 266 265 264 265 267 270
263 262 262 262 264 267 268 267 266 266 267 270 269 268 269 270 271 269 266 265 265 266 267 267 267 267 266 265 265 265 265 264 264 266 267 266 267 268
263 264 263 263 265 267 268 268 265 266 267 269 270 270 269 269 269 267 264 262 263 265 267 267 267 267 267 266 267 267 267 266 267 268 268 267 268 269
263 264 267 266 266 266 266 267 267 266 266 267 270 272 270 269 267 265 262 261 263 265 266 266 266 266 265 266 267 267 267 268 267 267 268 268 270 270
265 265 266 266 266 266 265 266 267 266 266 265 266 269 268 269 269 266 264 264 265 267 268 268 268 267 267 267 267 267 268 269 269 269 270 269 270 271
265 265 267 268 268 265 265 265 266 265 264 266 267 269 268 267 267 267 265 264 264 265 266 268 269 268 267 268 269 269 269 269 268 269 270 270 270 270
265 265 267 269 267 264 264 264 264 264 263 264 264 265 265 265 265 266 267 265 264 265 266 267 268 268 268 267 268 269 269 269 269 268 268 269 270 270
265 265 266 267 266 265 263 262 261 261 262 261 261 260 261 263 264 264 265 266 265 265 266 266 267 268 267 266 267 267 267 269 269 268 268 267 268 268
266 266 265 264 263 262 261 260 259 259 259 259 259 258 260 263 264 265 265 266 267 266 266 267 267 267 267 267 267 266 266 268 268 268 267 266 267 268
267 266 264 262 260 259 259 258 257 257 257 258 259 258 259 262 263 264 265 265 265 265 265 265 265 266 267 267 266 266 266 267 268 268 268 268 268 268
266 266 264 260 259 257 257 256 256 256 256 257 258 258 258 259 261 263 263 264 264 265 266 266 264 264 267 268 267 266 267 268 268 269 269 269 269 269
266 263 260 258 257 256 257 258 257 256 256 256 257 258 258 259 261 263 263 263 263 264 265 266 265 265 266 267 268 268 268 270 269 269 269 271 271 271
266 263 260 257 255 255 257 258 258 259 259 258 259 261 259 259 262 264 264 263 264 264 264 265 266 266 266 267 268 269 270 270 269 269 271 271 270 271
265 263 261 257 254 255 257 258 258 259 259 258 260 262 262 261 261 262 262 262 263 263 264 265 265 265 266 268 268 269 270 271 270 270 271 271 272 273
265 264 261 257 254 255 256 257 259 259 260 259 260 263 264 263 261 261 261 262 263 263 263 265 265 266 268 268 269 270 271 271 271 269 270 272 272 272
265 263 259 256 255 254 255 256 258 258 259 260 260 261 262 263 264 263 263 263 264 263 262 264 265 266 268 269 270 271 272 272 270 268 269 272 272 272
266 261 258 256 255 254 253 254 255 257 258 260 261 261 261 262 263 263 263 263 263 262 261 263 265 268 269 269 269 270 270 271 271 269 268 270 272 274
Height
5818 5818 5818 5818 5817 5817 5817 5817 5818 5817 5817 5816 5816 5815 5814 5814 5813 5813 5812 5812 5812 5811 5811 5811 5811 5811 5811 5810 5811 5811 5811 5811 5811 5811 5811 5812 5812 5811
5812 5812 5812 5812 5812 5812 5812 5812 5811 5811 5811 5811 5810 5809 5809 5808 5808 5807 5807 5807 5806 5806 5806 5805 5805 5805 5805 5805 5805 5805 5805 5806 5806 5806 5806 5806 5806 5806
5806 5806 5806 5806 5806 5806 5806 5806 5806 5805 5805 5805 5804 5804 5803 5803 5802 5801 5801 5801 5801 5800 5800 5800 5800 5799 5799 5799 5800 5800 5800 5800 5800 5801 5801 5801 5801 5800
5800 5800 5799 5799 5800 5800 5800 5800 5800 5799 5799 5799 5799 5798 5798 5797 5796 5796 5795 5795 5795 5795 5794 5794 5794 5794 5794 5794 5794 5794 5794 5794 5795 5795 5795 5795 5795 5794
5793 5793 5793 5793 5794 5794 5794 5793 5793 5793 5792 5792 5793 5792 5792 5792 5791 5790 5790 5790 5789 5789 5789 5789 5789 5788 5788 5788 5788 5788 5788 5788 5789 5789 5789 5789 5789 5789
5785 5785 5786 5786 5787 5787 5787 5787 5787 5787 5786 5786 5786 5786 5786 5785 5785 5784 5784 5784 5783 5783 5783 5783 5783 5782 5782 5782 5782 5782 5782 5782 5782 5782 5782 5783 5783 5782
5777 5778 5779 5779 5779 5779 5780 5780 5780 5780 5780 5780 5780 5780 5779 5779 5779 5778 5778 5778 5777 5778 5778 5777 5777 5777 5776 5776 5776 5776 5776 5776 5776 5776 5776 5776 5776 5776
5770 5771 5771 5772 5772 5772 5772 5773 5773 5773 5774 5773 5773 5773 5773 5773 5772 5772 5772 5772 5772 5772 5771 5771 5771 5771 5770 5770 5770 5770 5770 5770 5770 5770 5769 5769 5769 5769
5763 5763 5764 5764 5765 5765 5765 5765 5766 5766 5767 5767 5766 5766 5766 5766 5766 5766 5765 5765 5765 5765 5765 5765 5765 5764 5764 5764 5763 5763 5763 5763 5763 5763 5763 5762 5762 5762
5755 5755 5756 5756 5757 5757 5757 5758 5758 5758 5759 5759 5759 5759 5759 5759 5759 5759 5759 5759 5759 5759 5759 5759 5758 5758 5757 5757 5756 5756 5756 5756 5755 5755 5755 5755 5755 5754
5747 5748 5748 5748 5749 5749 5749 5750 5750 5750 5751 5751 5752 5752 5752 5752 5752 5752 5752 5752 5752 5752 5752 5752 5751 5751 5750 5750 5749 5749 5749 5749 5748 5747 5747 5747 5747 5746
5739 5739 5740 5740 5740 5741 5741 5741 5742 5742 5743 5743 5744 5744 5744 5745 5745 5745 5745 5745 5745 5745 5745 5745 5744 5744 5744 5743 5742 5742 5742 5741 5741 5740 5740 5739 5739 5738
5731 5731 5731 5732 5732 5732 5733 5733 5734 5734 5735 5736 5736 5737 5737 5738 5738 5738 5738 5738 5738 5738 5738 5737 5737 5736 5736 5736 5736 5735 5734 5734 5733 5733 5732 5731 5731 5731
5721 5722 5722 5723 5723 5724 5724 5725 5726 5726 5727 5728 5729 5730 5730 5731 5731 5731 5731 5731 5731 5731 5730 5730 5730 5729 5729 5729 5729 5728 5727 5727 5726 5725 5725 5724 5723 5723
5712 5713 5713 5714 5714 5715 5715 5716 5717 5718 5720 5720 5721 5722 5723 5723 5723 5724 5724 5724 5723 5723 5723 5722 5722 5722 5722 5721 5721 5720 5720 5719 5719 5718 5718 5717 5716 5716
5703 5704 5704 5705 5705 5706 5707 5708 5709 5710 5711 5713 5713 5714 5715 5716 5716 5716 5716 5716 5716 5716 5715 5715 5715 5714 5714 5713 5713 5713 5712 5712 5711 5711 5710 5710 5709 5709
5694 5695 5695 5696 5697 5698 5700 5701 5702 5703 5704 5705 5706 5707 5707 5708 5708 5708 5709 5709 5709 5708 5708 5708 5707 5707 5706 5706 5706 5705 5705 5704 5704 5703 5703 5703 5702 5701
5685 5686 5687 5688 5689 5690 5691 5693 5694 5695 5696 5697 5698 5698 5699 5700 5700 5700 5701 5701 5701 5701 5700 5700 5699 5699 5699 5699 5699 5698 5697 5697 5696 5696 5695 5695 5695 5694
5678 5678 5679 5680 5681 5683 5684 5685 5686 5687 5688 5689 5689 5690 5691 5691 5692 5692 5692 5693 5693 5693 5692 5692 5692 5692 5691 5691 5691 5690 5690 5689 5688 5688 5688 5687 5687 5687
5670 5671 5671 5672 5674 5675 5676 5677 5678 5679 5680 5681 5682 5682 5683 5683 5683 5684 5684 5685 5685 5685 5684 5684 5684 5684 5684 5684 5683 5683 5682 5681 5681 5681 5680 5679 5679 5679
5663 5663 5664 5665 5666 5668 5669 5670 5671 5672 5672 5673 5674 5674 5675 5675 5675 5676 5676 5676 5677 5677 5677 5677 5676 5676 5676 5676 5676 5675 5674 5674 5673 5673 5672 5672 5672 5672
5655 5655 5656 5657 5658 5660 5661 5662 5663 5665 5665 5666 5666 5666 5667 5667 5667 5667 5668 5668 5669 5669 5669 5669 5669 5669 5669 5669 5668 5668 5667 5666 5666 5665 5665 5665 5665 5664
5647 5647 5648 5649 5651 5652 5653 5655 5656 5657 5658 5659 5659 5659 5660 5660 5660 5660 5660 5661 5661 5661 5661 5661 5661 5661 5661 5661 5661 5660 5660 5659 5659 5658 5658 5657 5657 5657